Regional Weather Roundup
Issued by NWS

Home | Current Version | Previous Version | Graphics & Text | Print | Product List | Glossary Off
Versions: 1 2 3 4 5 6 7 8 9 10 11 12 13 14 15 16 17 18 19 20 21 22 23 24 25 26 27 28 29 30 31 32 33 34 35 36 37 38 39 40 41 42 43 44 45 46 47 48 49 50

000
ASUS43 KTOP 260408
RWRKS

WEATHER ROUNDUP FOR KANSAS
NATIONAL WEATHER SERVICE GOODLAND KS
1100 PM CDT THU AUG 25 2016

NOTE:  "FAIR" INDICATES FEW OR NO CLOUDS BELOW 12,000 FEET WITH NO
SIGNIFICANT WEATHER AND/OR OBSTRUCTIONS TO VISIBILITY.

KSZ001>006-013>018-027>032-041>047-260500-
NORTHWEST KANSAS

CITY           SKY/WX    TMP DP  RH WIND       PRES   REMARKS
GOODLAND       CLOUDY    56  52  86 SE5       30.21S
HAYS           PTCLDY    64  54  68 NE7       30.16S
HILL CITY      CLOUDY    61  58  90 NE3       30.18S
RUSSELL        PTCLDY    63  59  87 NE7       30.14S
$$

KSZ061>065-074>080-084>089-260500-
SOUTHWEST KANSAS

CITY           SKY/WX    TMP DP  RH WIND       PRES   REMARKS
DODGE CITY     CLOUDY    66  63  90 NE3       30.15R
ELKHART          N/A     63  56  78 NE2         N/A
GARDEN CITY    CLOUDY    66  60  81 E6        30.16R
GREAT BEND     CLOUDY    68  55  64 NE7       30.14S
LIBERAL        CLOUDY    66  59  77 N5        30.16S
PRATT          PTCLDY    67  62  85 NE7       30.13S
$$

KSZ066>073-081>083-090>101-260500-
SOUTHEAST KANSAS

CITY           SKY/WX    TMP DP  RH WIND       PRES   REMARKS
CHANUTE        PTCLDY    77  72  84 NE6       30.05S
COFFEYVILLE    CLOUDY    72  68  87 SE9       30.05S
HUTCHINSON     CLOUDY    70  65  84 NE7       30.10S
MEDICINE LODGE   N/A     70  66  87 NE13      30.09S
NEWTON         PTCLDY    69  66  90 NE10      30.10F
PARSONS        PTCLDY    73  67  81 S3        30.05S
WICHITA INTL   CLOUDY    75  67  76 NE12      30.08S
WICHITA JABRA  CLOUDY    72  68  87 NE9       30.08S
WICHITA MCCONL CLOUDY    74  67  79 NE13      30.08S
WINFIELD       CLOUDY    74  71  91 E9        30.06S THUNDER
$$

KSZ007>012-019>026-033>040-048>060-102>105-260500-
NORTHEAST KANSAS

CITY           SKY/WX    TMP DP  RH WIND       PRES   REMARKS
CONCORDIA      PTCLDY    65  59  81 CALM      30.15R
EMPORIA        CLOUDY    72  68  87 N8        30.08S
LAWRENCE       LGT RAIN  72  68  87 NE3       30.09S
MANHATTAN      CLOUDY    69  63  81 NE8       30.12R
MARYSVILLE     PTCLDY    64  61  88 NE5       30.14R
OLATHE IND     CLOUDY    73  70  90 NE8       30.09S
OLATHE EXE     CLOUDY    73  70  90 NE9       30.09S
SALINA         PTCLDY    72  61  68 NE8       30.13R
TOPEKA BILLARD PTCLDY    69  64  84 N6        30.10R
TOPEKA FORBES  PTCLDY    72  67  84 N6        30.10R
$$




USA.gov is the U.S. government's official web portal to all federal, state and local government web resources and services.